Tracking 31027 objects as of 19-Jul-2025
HD Live streaming from Space Station
objects crossing your sky now

STARLINK-30421

Track STARLINK-30421 now!
10-day predictions
STARLINK-30421 is classified as:


NORAD ID: 58107
Int'l Code: 2023-161L
Perigee: 481.4 km
Apogee: 483.3 km
Inclination: 53.2 °
Period: 94.1 minutes
Semi major axis: 6853 km
RCS: Unknown
Launch date: October 21, 2023
Source: United States (US)
Launch site: AIR FORCE WESTERN TEST RANGE (AFWTR)
Your satellite tracking list
STARLINK-4010
Track 1 satellite(s)




NASA's NSSDC Master Catalog

Two Line Element Set (TLE):
1 58107U 23161L   25199.61328958 -.00000411  00000-0 -17446-5 0  9997
2 58107  53.1597 159.8139 0001388  90.0976 270.0183 15.30186862 98648
Source of the keplerian elements: AFSPC